FW8091 Weather Reports


time (UTC)temp
F
wind
direction
speed
knots
gust
knots
rain 1hr
in
rain 24hr
in
rain mn
in
humidity
%
barometer
mb
20260507031543 64 70 7.8 12.2 0.00 0.00 0.00 62 1012.9
20260507030042 63 33 6.1 9.6 0.00 0.00 0.00 62 1013.0
20260507024545 63 22 5.2 7.8 0.00 0.00 0.00 62 1013.1
20260507023038 64 21 7.0 11.3 0.00 0.00 0.00 62 1013.3
20260507021515 64 48 7.0 12.2 0.00 0.00 0.00 62 1013.2
20260507020004 64 36 7.0 13.0 0.00 0.00 0.00 61 1013.4
20260507014601 64 41 7.8 11.3 0.00 0.00 0.00 61 1013.5
20260507013034 64 52 5.2 12.2 0.00 0.00 0.00 61 1013.8
20260507011537 64 50 6.1 11.3 0.00 0.00 0.00 62 1013.7
20260507010056 64 57 5.2 11.3 0.00 0.00 0.00 62 1013.7
20260507004554 64 25 6.1 12.2 0.00 0.00 0.00 62 1013.7
20260507003050 64 44 6.1 9.6 0.00 0.00 0.00 61 1013.8
20260507001547 64 43 5.2 10.4 0.00 0.00 0.00 61 1013.7
20260507000046 64 33 7.0 10.4 0.00 0.00 0.00 60 1013.6
20260506234552 65 58 2.6 9.6 0.00 0.00 0.00 60 1014.0
20260506233041 64 40 3.5 8.7 0.00 0.00 0.00 60 1014.1
20260506231540 64 40 3.5 8.7 0.00 0.00 0.00 60 1014.2
20260506230039 64 32 3.5 7.8 0.00 0.00 0.00 60 1014.3
20260506224544 65 47 2.6 7.0 0.00 0.00 0.00 60 1014.4
20260506223037 65 50 4.3 8.7 0.00 0.00 0.00 60 1014.2
20260506221536 65 64 6.1 9.6 0.00 0.00 0.00 60 1014.0
20260506220037 65 62 5.2 10.4 0.00 0.00 0.00 60 1014.3
20260506214535 65 47 3.5 9.6 0.00 0.00 0.00 60 1014.5
20260506213033 65 67 5.2 9.6 0.00 0.00 0.00 60 1014.9
20260506211531 65 73 4.3 9.6 0.00 0.00 0.00 60 1014.8
20260506210035 65 73 6.1 9.6 0.00 0.00 0.00 60 1014.8
20260506204545 65 96 7.0 9.6 0.00 0.00 0.00 60 1014.8
20260506203030 65 120 6.1 9.6 0.00 0.00 0.00 61 1014.5
20260506201530 65 82 3.5 9.6 0.00 0.00 0.00 61 1014.3
20260506200024 65 94 5.2 10.4 0.00 0.00 0.00 61 1014.0
20260506194524 65 97 7.0 9.6 0.00 0.00 0.00 61 1013.9
20260506193020 65 88 5.2 11.3 0.00 0.00 0.00 61 1013.6
20260506191520 65 68 7.8 11.3 0.00 0.00 0.00 61 1013.5
20260506190019 65 93 7.0 10.4 0.00 0.00 0.00 60 1013.5
20260506184519 65 91 7.8 11.3 0.00 0.00 0.00 60 1013.3
20260506183016 65 86 6.1 9.6 0.00 0.00 0.00 60 1013.1
20260506181524 65 102 7.8 12.2 0.00 0.00 0.00 60 1013.0
20260506180016 65 65 6.1 12.2 0.00 0.00 0.00 60 1013.0
20260506174515 65 88 9.6 12.2 0.00 0.00 0.00 60 1013.1
20260506173014 66 95 9.6 11.3 0.00 0.00 0.00 61 1013.0
20260506171522 66 118 8.7 13.9 0.00 0.00 0.00 60 1012.9
20260506170012 66 99 7.8 13.0 0.00 0.00 0.00 60 1012.9
20260506164512 66 85 11.3 16.5 0.00 0.00 0.00 59 1013.0
20260506163010 66 85 11.3 17.4 0.00 0.00 0.00 59 1013.0
20260506161509 66 89 9.6 19.1 0.00 0.00 0.00 60 1013.1
20260506160008 66 83 9.6 18.2 0.00 0.00 0.00 60 1013.0
20260506154508 66 96 11.3 20.0 0.00 0.00 0.00 60 1013.0
20260506153037 66 81 13.9 18.2 0.00 0.00 0.00 59 1012.9
20260506151555 66 97 11.3 16.5 0.00 0.00 0.00 58 1013.1
20260506150035 66 54 11.3 16.5 0.00 0.00 0.00 57 1013.2
20260506144535 66 68 10.4 17.4 0.00 0.00 0.00 56 1013.2
20260506143044 67 56 10.4 14.8 0.00 0.00 0.00 55 1013.2
20260506141534 67 41 10.4 14.8 0.00 0.00 0.00 56 1013.2
20260506140036 66 75 9.6 14.8 0.00 0.00 0.00 56 1013.3
20260506134532 67 73 10.4 14.8 0.00 0.00 0.00 56 1013.4
20260506133031 66 56 11.3 15.6 0.00 0.00 0.00 55 1013.5
20260506131531 67 71 8.7 14.8 0.00 0.00 0.00 56 1013.6
20260506130028 66 73 9.6 15.6 0.00 0.00 0.00 57 1013.6
20260506124527 67 70 12.2 15.6 0.00 0.00 0.00 57 1014.0
20260506123027 67 68 10.4 14.8 0.00 0.00 0.00 58 1014.0
20260506121527 67 65 10.4 13.9 0.00 0.00 0.00 57 1014.0
20260506120024 67 93 10.4 15.6 0.00 0.00 0.00 57 1014.2
20260506114535 67 64 10.4 17.4 0.00 0.00 0.00 58 1014.1
20260506113023 67 57 10.4 16.5 0.00 0.00 0.00 58 1014.2
20260506111522 66 62 12.2 20.9 0.00 0.00 0.00 59 1014.2
20260506110022 66 45 13.9 20.0 0.00 0.00 0.00 59 1014.2
20260506104613 67 29 11.3 20.9 0.00 0.00 0.00 59 1014.3
20260506103053 67 24 12.2 20.9 0.00 0.00 0.00 58 1014.3
20260506101556 67 48 13.0 20.9 0.00 0.00 0.00 58 1014.4
20260506100048 66 32 14.8 20.0 0.00 0.00 0.00 57 1014.3
20260506094555 66 24 13.9 21.7 0.00 0.00 0.00 57 1014.3
20260506093053 67 41 14.8 21.7 0.00 0.00 0.00 56 1014.2
20260506091543 67 62 14.8 20.9 0.00 0.00 0.00 56 1014.0
20260506090043 67 33 12.2 19.1 0.00 0.00 0.00 55 1013.7
20260506084539 66 43 13.9 20.0 0.00 0.00 0.00 55 1013.7
20260506083040 66 29 11.3 17.4 0.00 0.00 0.00 58 1013.7
20260506081536 66 43 9.6 19.1 0.00 0.00 0.00 59 1013.6
20260506073041 66 64 11.3 15.6 0.00 0.00 0.00 58 1013.7
20260506071530 66 48 10.4 15.6 0.00 0.00 0.00 58 1013.8
20260506061554 62 16 4.3 8.7 0.00 0.00 0.00 47 1013.5
20260506044510 61 35 5.2 8.7 0.00 0.00 0.00 50 1012.5
20260506043005 62 32 6.1 8.7 0.00 0.00 0.00 51 1012.4
20260506041606 62 8 4.3 7.0 0.00 0.00 0.00 53 1012.3
20260506040057 62 339 1.7 3.5 0.00 0.00 0.00 56 1012.4
20260506034556 62 354 2.6 4.3 0.00 0.00 0.00 58 1012.5
20260506033100 62 317 1.7 3.5 0.00 0.00 0.00 58 1012.7